Location: Mainz-Finthen
(49.9906°N, 8.1713°E)
Time: 17:00:50
(UTC+00:00)

N. Korean satellite - Visible Passes

Search period start: 26 September 2021 00:00
Search period end: 06 October 2021 00:00
Orbit: 449 x 498 km, 97.3° (Epoch: 25 September)

Date Brightness Start Highest point End Pass type
(mag) Time Alt. Az. Time Alt. Az. Time Alt. Az.
26 Sep 7.5 04:37:00 10° NNE 04:40:28 52° E 04:44:00 10° S visible
27 Sep 9.1 04:09:32 10° NE 04:12:34 25° E 04:15:36 10° SSE visible
28 Sep 9.9 03:42:44 10° ENE 03:44:32 13° E 03:46:19 10° ESE visible
29 Sep 7.0 04:46:42 10° NNE 04:50:16 70° ESE 04:53:53 10° S visible
30 Sep 8.6 04:19:05 10° NNE 04:22:22 32° E 04:25:39 10° SSE visible
01 Oct 9.7 03:51:54 10° NE 03:54:20 17° E 03:56:45 10° SE visible
02 Oct 6.6 04:56:20 10° NNE 04:59:57 89° WNW 05:03:35 10° SSW visible
03 Oct 8.0 04:28:35 10° NNE 04:32:02 42° E 04:35:30 10° S visible
04 Oct 9.4 04:01:10 10° NE 04:04:00 21° E 04:06:51 10° SE visible
05 Oct 10.2 03:34:47 10° ENE 03:35:51 11° E 03:36:54 10° ESE visible
